North Adams, MA

5:36 AM EDT on October 22, 2017 (GMT -0400)
Harriman And West

Weather History for KAQW - December, 2013

Change the Weather History Date:

Monday, December 30, 2013

  Actual Average Record
Temperature  
Mean Temperature 24 °F -  
Max Temperature 37 °F 32 °F 45 °F (2003)
Min Temperature 10 °F 17 °F 5 °F (1998)
Degree Days  
Heating Degree Days 40    
Moisture  
Dew Point 17 °F    
Average Humidity 70    
Maximum Humidity 100    
Minimum Humidity 54    
Precipitation  
Precipitation 0.00 in - - ()
Sea Level Pressure  
Sea Level Pressure 29.96 in    
Wind  
Wind Speed 7 mph (West)    
Max Wind Speed 22 mph    
Max Gust Speed 29 mph    
Visibility 10 miles    
Events Rain    
Averages and records for this station are not official NWS values.
T = Trace of Precipitation, MM = Missing Value Source: NWS Daily Summary

Daily Weather History Graph

Daily Weather History Graph

Search for Another Location

Airport or City:

Trip Planner

Search our weather history database for the weather conditions in past years. The results will help you decide how hot, cold, wet, or windy it might be!

Date:

Astronomy

Dec. 30, 2013 Rise Set
Actual Time 7:22 AM EST 4:28 PM EST
Civil Twilight 6:50 AM EST 5:00 PM EST
Nautical Twilight 6:15 AM EST 5:35 PM EST
Astronomical Twilight 5:40 AM EST 6:10 PM EST
Moon 5:08 AM EST (12/30) 2:59 PM EST (12/30)
Length of Visible Light 10h 09m
Length of Day
9h 05m
Waning Crescent, 5% of the Moon is Illuminated
Dec 30
Waning Crescent
Jan 1
New
Jan 7
First Quarter
Jan 15
Full
Jan 24
Last Quarter

Hourly Weather History & Observations

Time (EST) Temp. Windchill Dew Point Humidity Pressure Visibility Wind Dir Wind Speed Gust Speed Precip Events Conditions
12:52 AM 33.1 °F - 33.1 °F 100% 29.65 in 7.0 mi Calm Calm - N/A   Overcast
1:52 AM 33.1 °F 27.7 °F 33.1 °F 100% 29.68 in 4.0 mi West 5.8 mph - 0.00 in Rain Light Rain
2:47 AM 33.8 °F 29.6 °F 33.8 °F 100% 29.69 in 10.0 mi WNW 4.6 mph - 0.00 in   Overcast
2:52 AM 35.1 °F 30.1 °F 34.0 °F 96% 29.71 in 10.0 mi West 5.8 mph - 0.00 in   Overcast
3:52 AM 37.0 °F 34.5 °F 33.1 °F 86% 29.72 in 10.0 mi WNW 3.5 mph - N/A   Overcast
4:52 AM 37.0 °F 31.0 °F 30.9 °F 79% 29.73 in 10.0 mi West 8.1 mph - N/A   Overcast
5:52 AM 37.0 °F 32.4 °F 30.9 °F 79% 29.75 in 10.0 mi Variable 5.8 mph - N/A   Overcast
6:52 AM 34.0 °F 24.2 °F 28.9 °F 82% 29.81 in 10.0 mi West 15.0 mph 23.0 mph N/A   Overcast
7:19 AM 33.8 °F 23.9 °F 24.8 °F 70% 29.81 in 10.0 mi West 15.0 mph 25.3 mph N/A   Overcast
7:52 AM 30.9 °F 20.7 °F 21.9 °F 69% 29.87 in 10.0 mi West 13.8 mph 24.2 mph N/A   Overcast
8:52 AM 28.9 °F 20.4 °F 19.0 °F 67% 29.93 in 10.0 mi West 9.2 mph - N/A   Overcast
9:11 AM 28.4 °F 22.2 °F 17.6 °F 64% 29.92 in 10.0 mi Variable 5.8 mph 21.9 mph N/A   Overcast
9:52 AM 28.0 °F 22.8 °F 18.0 °F 66% 29.98 in 10.0 mi Variable 4.6 mph 21.9 mph N/A   Overcast
10:52 AM 27.0 °F 18.7 °F 12.9 °F 56% 30.00 in 10.0 mi WNW 8.1 mph 25.3 mph N/A   Overcast
11:52 AM 24.1 °F 14.4 °F 10.9 °F 57% 30.01 in 10.0 mi NW 9.2 mph - N/A   Partly Cloudy
12:52 PM 23.0 °F 7.6 °F 10.9 °F 60% 30.02 in 10.0 mi West 21.9 mph 27.6 mph N/A   Clear
1:52 PM 23.0 °F 8.3 °F 12.0 °F 63% 30.03 in 10.0 mi West 19.6 mph 27.6 mph N/A   Clear
2:52 PM 21.0 °F 6.6 °F 9.0 °F 60% 30.06 in 10.0 mi West 17.3 mph 28.8 mph N/A   Clear
3:52 PM 21.0 °F 9.3 °F 7.0 °F 55% 30.09 in 10.0 mi West 11.5 mph 21.9 mph N/A   Clear
4:52 PM 19.0 °F 5.6 °F 5.0 °F 54% 30.12 in 10.0 mi West 13.8 mph 24.2 mph N/A   Clear
5:52 PM 17.1 °F 5.0 °F 5.0 °F 59% 30.14 in 10.0 mi West 10.4 mph - N/A   Clear
6:52 PM 16.0 °F 3.6 °F 3.9 °F 59% 30.16 in 10.0 mi West 10.4 mph 16.1 mph N/A   Clear
7:52 PM 15.1 °F 4.2 °F 3.9 °F 61% 30.18 in 10.0 mi West 8.1 mph - N/A   Clear
8:52 PM 14.0 °F 3.9 °F 3.0 °F 62% 30.19 in 10.0 mi West 6.9 mph - N/A   Clear
9:52 PM 12.9 °F 5.2 °F 3.0 °F 65% 30.21 in 10.0 mi West 4.6 mph - N/A   Clear
10:52 PM 12.0 °F 5.9 °F 1.9 °F 64% 30.19 in 10.0 mi WSW 3.5 mph - N/A   Clear
11:52 PM 10.9 °F - 3.0 °F 70% 30.19 in 10.0 mi Calm Calm - N/A   Clear